South Bend, IN

1:52 PM EDT on July 20, 2017 (GMT -0400)
South Bend Regional

Weather History for KSBN - February, 2014

Change the Weather History Date:

Monday, February 10, 2014

  Actual Average Record
Temperature  
Mean Temperature 5 °F 26 °F  
Max Temperature 13 °F 34 °F 62 °F (2009)
Min Temperature -4 °F 19 °F -20 °F (1899)
Degree Days  
Heating Degree Days 60 39  
Month to date heating degree days 517 395  
Since 1 July heating degree days 4407 4043  
Cooling Degree Days 0 0  
Month to date cooling degree days 0 0  
Year to date cooling degree days 0 0  
Moisture  
Dew Point -1 °F    
Average Humidity 70    
Maximum Humidity 79    
Minimum Humidity 61    
Precipitation  
Precipitation T in 0.07 in 1.03 in (1960)
Month to date precipitation 0.84 0.63  
Year to date precipitation 3.96 2.92  
Snow  
Snow 0.00 in 0.50 in 6.60 in (2016)
Month to date snowfall 6.1  
Since 1 July snowfall 49.2  
Snow Depth -    
Sea Level Pressure  
Sea Level Pressure 30.38 in    
Wind  
Wind Speed 9 mph (West)    
Max Wind Speed 17 mph    
Max Gust Speed 20 mph    
Visibility 9 miles    
Events Snow    
T = Trace of Precipitation, MM = Missing Value Source: NWS Daily Summary

Daily Weather History Graph

Daily Weather History Graph

Search for Another Location

Airport or City:

Trip Planner

Search our weather history database for the weather conditions in past years. The results will help you decide how hot, cold, wet, or windy it might be!

Date:

Astronomy

Feb. 10, 2014 Rise Set
Actual Time 7:47 AM EST 6:12 PM EST
Civil Twilight 7:18 AM EST 6:41 PM EST
Nautical Twilight 6:45 AM EST 7:13 PM EST
Astronomical Twilight 6:13 AM EST 7:46 PM EST
Moon 2:39 PM EST (2/10) 4:41 AM EST (2/10)
Length of Visible Light 11h 22m
Length of Day
10h 25m
Waxing Gibbous, 84% of the Moon is Illuminated
Feb 10
Waxing Gibbous
Feb 14
Full
Feb 22
Last Quarter
Mar 1
New
Mar 8
First Quarter

Hourly Weather History & Observations

Time (EST) Temp. Windchill Dew Point Humidity Pressure Visibility Wind Dir Wind Speed Gust Speed Precip Events Conditions
12:54 AM 12.0 °F -0.4 °F 5.0 °F 73% 30.27 in 8.0 mi West 9.2 mph - N/A   Overcast
1:54 AM 12.0 °F 0.5 °F 5.0 °F 73% 30.28 in 5.0 mi WSW 8.1 mph - 0.00 in Snow Light Snow
2:54 AM 10.0 °F -0.9 °F 3.9 °F 76% 30.29 in 5.0 mi WSW 6.9 mph - 0.00 in Snow Light Snow
3:54 AM 10.0 °F -3.7 °F 3.9 °F 76% 30.29 in 7.0 mi West 10.4 mph - 0.00 in   Overcast
4:54 AM 9.0 °F -5.1 °F 1.9 °F 73% 30.30 in 9.0 mi West 10.4 mph - 0.00 in   Overcast
5:54 AM 3.9 °F -10.4 °F -2.0 °F 76% 30.33 in 10.0 mi West 9.2 mph - N/A   Mostly Cloudy
6:54 AM 1.9 °F -10.6 °F -4.0 °F 76% 30.35 in 10.0 mi West 6.9 mph - N/A   Mostly Cloudy
7:54 AM 1.9 °F -13.8 °F -4.0 °F 76% 30.36 in 10.0 mi WNW 10.4 mph - N/A   Clear
8:54 AM 3.0 °F -8.0 °F -2.9 °F 76% 30.39 in 10.0 mi West 5.8 mph - N/A   Clear
9:28 AM 6.8 °F -7.8 °F -0.4 °F 72% 30.33 in 8.0 mi WNW 10.4 mph - N/A   Overcast
9:54 AM 8.1 °F -6.2 °F 1.0 °F 73% 30.39 in 8.0 mi WNW 10.4 mph - 0.00 in   Overcast
10:54 AM 10.9 °F -4.1 °F 3.0 °F 70% 30.39 in 10.0 mi WNW 12.7 mph - N/A   Clear
11:54 AM 12.9 °F -0.2 °F 3.9 °F 67% 30.40 in 10.0 mi WNW 10.4 mph - N/A   Clear
12:54 PM 12.0 °F -4.0 °F 3.9 °F 70% 30.40 in 10.0 mi NW 15.0 mph - N/A   Clear
1:54 PM 12.0 °F -2.7 °F 3.0 °F 67% 30.39 in 10.0 mi West 12.7 mph - N/A   Clear
2:54 PM 12.0 °F -2.0 °F 1.0 °F 61% 30.39 in 10.0 mi WNW 11.5 mph - N/A   Clear
3:54 PM 12.0 °F -2.7 °F 1.0 °F 61% 30.40 in 10.0 mi NW 12.7 mph - N/A   Clear
4:54 PM 10.9 °F -4.1 °F 1.0 °F 64% 30.40 in 10.0 mi NW 12.7 mph - N/A   Clear
5:54 PM 8.1 °F -5.3 °F -0.9 °F 67% 30.42 in 10.0 mi WNW 9.2 mph - N/A   Clear
6:54 PM 3.9 °F -8.2 °F -4.0 °F 70% 30.45 in 10.0 mi West 6.9 mph - N/A   Clear
7:54 PM 1.9 °F -9.2 °F -6.0 °F 69% 30.45 in 10.0 mi West 5.8 mph - N/A   Clear
8:54 PM -0.0 °F -9.9 °F -5.1 °F 79% 30.46 in 10.0 mi West 4.6 mph - N/A   Clear
9:54 PM -0.9 °F -12.7 °F -6.0 °F 79% 30.47 in 10.0 mi WSW 5.8 mph - N/A   Clear
10:54 PM -0.9 °F -12.7 °F -6.0 °F 79% 30.46 in 10.0 mi West 5.8 mph - N/A   Partly Cloudy
11:40 PM -0.4 °F -13.4 °F -7.6 °F 72% 30.41 in 10.0 mi WSW 6.9 mph - N/A   Overcast
11:54 PM -0.0 °F -9.9 °F -5.1 °F 79% 30.47 in 10.0 mi WSW 4.6 mph - N/A   Overcast